Location: Newark
(36.1358°N, 115.1208°W)
Time: 01:16:32
(UTC+00:00)

Vanguard 1 Rocket - Pass Details

Date: 25 February 2020
Orbit: 650 x 4226 km, 34.3° (Epoch: 28 March)

Event Time Altitude Azimuth Distance (km) Brightness Sun altitude
Rises 11:22:40 0° 267° (W) 4,560 - -35.6°
Reaches altitude 10° 11:26:22 10° 266° (W) 3,115 - -34.9°
Maximum altitude 11:33:12 75° 183° (S) 835 - -33.6°
Exits shadow 11:35:17 34° 104° (ESE) 1,181 8.3 -33.1°
Drops below altitude 10° 11:37:44 10° 98° (E) 2,098 10.0 -32.7°
Sets 11:39:47 0° 96° (E) 2,958 11.0 -32.3°
